Orbcomm C6

operational
NORAD ID: 25480 Int'l Des: 1998-053 Owner: ORBC Country: US Constellation: orbcomm
LEOCIRCULAR

About Orbcomm C6

Description loading...

Live Position

Loading 3D Globe...

Upcoming Passes

Altitude History

Altitude vs Time

uPlot chart will show altitude changes over time

Two-Line Element Set

1 25480U 98053F 26061.41483385 .00001050 00000-0 39223-3 0 9993
2 25480 45.0059 120.7324 0005031 136.4516 223.6731 14.37802904434809
Epoch: Mar 2, 2026 • Age: 28 hours

Current Status

Altitude 766.7 km
Velocity 7.47 km/s
Sub-Earth Point 25.16°N, 83.1°W
Launch Date Sep 23, 1998
Age 27.4 years
Type other

Technical Details

Classification Payload
Mass 42.00 kg
Dry Mass 42.00 kg
Total Mass 42.00 kg
Length 0.20 m
Diameter 1.00 m
Span 4.30 m
Shape Cyl + 2 Pan + Ant
Manufacturer OSCG
Bus Type Microstar
Phase Status Unknown Transfer Status
Owner/State ORBC/US

Large Constellations

Loading constellations...